Regional Weather Roundup
Issued by NWS Newport/Morehead, NC

Current Version | Previous Version | Text Only | Print | Product List | Glossary On
Versions: 1 2 3 4 5 6 7 8 9 10 11 12 13 14 15 16 17 18 19 20 21 22 23 24 25 26 27 28 29 30 31 32 33 34 35 36 37 38 39 40 41 42 43 44 45 46 47 48 49 50
000
ASUS42 KMHX 061324
RWRMHX
WEATHER ROUNDUP FOR EASTERN NORTH CAROLINA
NATIONAL WEATHER SERVICE NEWPORT/MOREHEAD CITY NC
900 AM EDT WED MAY 06 2015

NOTE: "FAIR" INDICATES FEW OR NO CLOUDS BELOW 12,000 FEET
WITH NO SIGNIFICANT WEATHER AND/OR OBSTRUCTIONS TO VISIBILITY

NCZ015>017-031-032-045>047-102-103-061400-
NORTH COAST

CITY           SKY/WX    TMP DP  RH WIND       PRES   REMARKS
EDENTON        SUNNY     69  56  63 CALM      30.26F
ELIZABETH CITY SUNNY     69  59  70 CALM      30.27S
KITTY HAWK     MOSUNNY   69  61  77 CALM      30.26S
MANTEO         MOSUNNY   69  56  62 SW3       30.27S

$$

NCZ045>047-081-094-103-104-061400-
CENTRAL COAST

CITY           SKY/WX    TMP DP  RH WIND       PRES   REMARKS
FRISCO         PTSUNNY   68  54  60 SE5       30.26R
SWANQUARTER      N/A     70 N/A N/A E5        30.24R

$$

NCZ095-097-098-100-101-061400-
SOUTHERN COAST

CITY           SKY/WX    TMP DP  RH WIND       PRES   REMARKS
BEAUFORT       CLOUDY    70  60  70 NE6       30.24S
CEDAR ISLAND     N/A     70 N/A N/A NE3       30.30S
JACKSONVILLE   PTSUNNY   65  58  78 E3        30.24S
PINEY ISLAND   PTSUNNY  N/A N/A N/A E6        30.25R
WILMINGTON     CLOUDY    68  62  81 NE7       30.23S


$$

NCZ011>013-027>030-043-044-078>080-089-090>093-098-061400-
COASTAL PLAIN

CITY           SKY/WX    TMP DP  RH WIND       PRES   REMARKS
AHOSKIE        MOSUNNY   65  56  74 CALM      30.26F
CLINTON        PTSUNNY   65  59  79 CALM      30.25S
ELIZABETHTOWN  PTSUNNY   66  58  75 E3        30.24S
GOLDSBORO      MOSUNNY   65  58  79 CALM      30.23S
GREENVILLE     MOSUNNY   66  59  77 CALM      30.26F
HAVELOCK       CLOUDY    69  60  73 NE5       30.26R
KENANSVILLE    PTSUNNY   65  58  78 CALM      30.26S
KINSTON        PTSUNNY   64  59  82 CALM      30.26S
NEW BERN       PTSUNNY   66  58  75 E3        30.27R
RICHLANDS      PTSUNNY   64  55  72 E5        30.26R
ROCKY MOUNT    MOSUNNY   66  57  72 SE3       30.26S
WASHINGTON       N/A     66  57  71 CALM      30.26S
WHITEVILLE     CLOUDY    64  58  82 NE3       30.23S

$$

AMZ130-135-150-152-154-156-158-170-250-252-270-ANZ085-086-088-633-658-670-061400-
MARINE OBSERVATIONS

STATION/POSITION TIME  TEMP    WIND        PRES    WAVE   SWELL
                       AIR SEA DIR/SP/G            HT/PER HT/PER
                 (UTC) (F)     (DEG/KT/KT) (MB)    (FT/S) (FT/S)
CHESAPEAKE LIGHT 1300   62     210/ 10/ 10 1025.4
64 E VA BEACH    1250   59 57  240/  2/  4 1024.7    2/11   2/11
DUCK             1200   60 51  140/  2/  3 1024.0
2 E DUCK         1211      55                N/A     2/11
OREGON INLET     1300   68 70   70/  3/  4 1024.9
13E OREGON INLT  1300      61                N/A     2/11
HATTERAS CG      1200   69 67   50/  2/  3 1023.8
DIAMOND BUOY     1250   71 75  100/  8/ 10 1024.5    3/10   3/10
CAPE LOOKOUT     1300   69      40/  7/  9 1023.9
BEAUFORT LAB     1200   67 68   70/  3/  6 1023.0
27 SE WRIGHTSVLE 1300   68 71   80/ 12/ 14   N/A
5 SE WRIGHTSVLE  1208   69 69   80/ 12/ 14 1023.3
225 S CAPE HAT   1250   66 71   70/ 23/ 27 1021.2    7/ 8   2/11
41 SE CHARLESTON 1250   73 73   50/ 17/ 21 1020.2    6/ 8   3/ 8

$$



USA.gov is the U.S. government's official web portal to all federal, state and local government web resources and services.